Regional Weather Roundup
Issued by NWS

Current Version | Previous Version | Text Only | Print | Product List | Glossary On
Versions: 1 2 3 4 5 6 7 8 9 10 11 12 13 14 15 16 17 18 19 20 21 22 23 24 25 26 27 28 29 30 31 32 33 34 35 36 37 38 39 40 41 42 43 44 45 46 47 48 49 50
000
ASUS43 KOAX 180010
RWRNE

WEATHER ROUNDUP FOR NEBRASKA
NATIONAL WEATHER SERVICE OMAHA NE
600 PM CST SUN FEB 17 2019

NOTES: SATELLITE DATA IS BEING USED TO AUGMENT CLOUD COVER ABOVE
       12000 FEET.
       "FAIR" INDICATES FEW OR NO CLOUDS BELOW 12,000 FEET WITH NO
       SIGNIFICANT WEATHER AND/OR OBSTRUCTIONS TO VISIBILITY.


NEZ001>004-019>022-054>056-180100-
NEBRASKA PANHANDLE

CITY           SKY/WX    TMP DP  RH WIND       PRES   REMARKS
SCOTTSBLUFF    FAIR      16   2  54 N18       30.05R WCI   0
6HR MIN TEMP:  16; 6HR MAX TEMP:  22;

ALLIANCE       CLOUDY    10   3  73 N10       30.05R WCI  -4
6HR MIN TEMP:  10; 6HR MAX TEMP:  15;

CHADRON        LGT SNOW   8   3  80 NE12      30.15R WCI  -7
6HR MIN TEMP:   9; 6HR MAX TEMP:  14; 6HR PCP: TRACE;

GORDON         MOCLDY     6   0  75 N15       30.09R WCI -12
KIMBALL        FAIR      17   1  50 N12       29.98R WCI   4
SIDNEY         FAIR      15   3  59 N16       30.01R WCI  -1
6HR MIN TEMP:  15; 6HR MAX TEMP:  21;

$$

NEZ057>060-069>072-079>082-180100-
SOUTHWEST NEBRASKA

CITY           SKY/WX    TMP DP  RH WIND       PRES   REMARKS
NORTH PLATTE   FAIR      14   4  64 N13G20    30.09R WCI   0
6HR MIN TEMP:  14; 6HR MAX TEMP:  19;

IMPERIAL       FAIR      16   2  54 N14       30.07R WCI   2
6HR MIN TEMP:  16; 6HR MAX TEMP:  20;

LEXINGTON      FAIR      15   7  70 NW15      30.10R WCI   0
MCCOOK         FAIR      16   6  65 N17       30.09R WCI   0
6HR MIN TEMP:  16; 6HR MAX TEMP:  20;

OGALLALA       FAIR      15   4  60 N10       30.08R WCI   2
$$

NEZ005>010-023>029-035>040-094-180100-
NORTH CENTRAL NEBRASKA

CITY           SKY/WX    TMP DP  RH WIND       PRES   REMARKS
VALENTINE      LGT SNOW  10   2  69 NW18G28   30.12R WCI  -8
6HR MIN TEMP:  10; 6HR MAX TEMP:  14; 6HR PCP: TRACE;

AINSWORTH      LGT SNOW  10   5  81 NW20      30.10R WCI  -9
BROKEN BOW     FAIR      13   5  70 NW16G26   30.07R WCI  -3
6HR MIN TEMP:  13; 6HR MAX TEMP:  17; 6HR PCP: TRACE;

O`NEILL        LGT SNOW  15  10  83 NW22G28   30.09R WCI  -3
ORD            LGT SNOW  15   8  73 NW16      30.08R WCI  -1
6HR MIN TEMP:  15; 6HR MAX TEMP:  20; 6HR PCP: TRACE;

THEDFORD       FAIR      10   4  76 NW14      30.10R WCI  -5
$$

NEZ041-046>049-061>064-073>077-083>087-180100-
SOUTH CENTRAL NEBRASKA

CITY           SKY/WX    TMP DP  RH WIND       PRES   REMARKS
GRAND ISLAND   MOCLDY    16   8  71 NW14      30.08R WCI   2
6HR MIN TEMP:  16; 6HR MAX TEMP:  21; 6HR PCP: TRACE;

AURORA         MOCLDY    16  10  77 NW17      30.07R WCI   0
HASTINGS       CLOUDY    17  11  77 NW16      30.07R WCI   2
6HR MIN TEMP:  17; 6HR MAX TEMP:  20; 6HR PCP: TRACE;

HEBRON         FLURRIES  20  13  72 NW10      30.09R WCI   9
HOLDREGE       FAIR      15   8  75 NW12      30.08R WCI   1
KEARNEY        FAIR      14   7  73 NW15      30.09R WCI  -1
YORK           FLURRIES  18  14  86 NW15      30.06R WCI   3
$$

NEZ011>018-030>034-042>045-180100-
NORTHEAST NEBRASKA

CITY           SKY/WX    TMP DP  RH WIND       PRES   REMARKS
NORFOLK        LGT SNOW  17  13  84 NW15      30.05R FOG     WCI   2
6HR MIN TEMP:  17; 6HR MAX TEMP:  19; 6HR PCP:  0.01;

ALBION         LGT SNOW  18  14  85 NW21      30.06R WCI   1
BLAIR          LGT SNOW  21  17  84 NW12      30.01R WCI   9
COLUMBUS       LGT SNOW  18  14  84 NW16      30.07R FOG     WCI   3
FREMONT        CLOUDY    22  17  80 NW14      30.05R WCI   9
TEKAMAH        LGT SNOW  20  17  88 N13       30.05R FOG     WCI   7
6HR MIN TEMP:  20; 6HR MAX TEMP:  23; 6HR PCP: TRACE;

WAYNE          LGT SNOW  19  15  84 N15       30.05R WCI   5
$$

NEZ050>053-065>068-078-088>093-180100-
SOUTHEAST NEBRASKA

CITY           SKY/WX    TMP DP  RH WIND       PRES   REMARKS
LINCOLN        CLOUDY    20  12  71 NW18      30.07R WCI   5
6HR MIN TEMP:  20; 6HR MAX TEMP:  24; 6HR PCP: TRACE;

OMAHA EPPLEY   LGT SNOW  21  16  81 N15       30.03R HAZE    WCI   8
6HR MIN TEMP:  22; 6HR MAX TEMP:  26; 6HR PCP: TRACE;

BEATRICE       FLURRIES  21  16  80 NW10      30.06R WCI  10
FALLS CITY     LGT SNOW  23  16  74 NW16      30.04R WCI  10
6HR MIN TEMP:  23; 6HR MAX TEMP:  26; 6HR PCP: TRACE;

NEBRASKA CITY  LGT SNOW  21  15  79 NW20G25   30.03R WCI   6
PLATTSMOUTH    LGT SNOW  21  17  83 NW13      30.03R WCI   9
$$

NEZ044-045-051>053-067-180100-
OMAHA AREA

CITY           SKY/WX    TMP DP  RH WIND       PRES   REMARKS
OMAHA EPPLEY   LGT SNOW  21  16  81 N15       30.03R HAZE    WCI   8
6HR MIN TEMP:  22; 6HR MAX TEMP:  26; 6HR PCP: TRACE;

BLAIR          LGT SNOW  21  17  84 NW12      30.01R WCI   9
FREMONT        CLOUDY    22  17  80 NW14      30.05R WCI   9
MILLARD        FLURRIES  23  17  77 NW10G18   30.04R WCI  12
OFFUTT AFB     FLURRIES  22  22  99 W13       30.03R WCI  10
PLATTSMOUTH    LGT SNOW  21  17  83 NW13      30.03R WCI   9
WAHOO          LGT SNOW  19  15  84 NW13      30.05R WCI   7
$$



USA.gov is the U.S. government's official web portal to all federal, state and local government web resources and services.